Lid_Strength_Index
2 3 6 6 10 11 13 12 11 10 10 8 7 7 8 8 10 12 3 0 -0 -0 -1 -1 -1 -2 -2 -2 -2 -2 -2 -3 -2 -2 -2 -2 -2 -2 -2 -2 -2 -2 -2 -2 -2 -2 -2 -2 -1
3 4 7 9 12 15 14 11 11 9 8 8 6 7 8 10 5 4 3 0 -0 -0 -1 -1 -1 -2 -2 -2 -2 -2 -2 -2 -2 -2 -2 -2 -2 -2 -2 -2 -2 -2 -2 -2 -2 -2 -2 -2 -1
4 5 9 10 13 14 14 11 9 8 7 7 8 6 7 8 5 4 2 0 -0 -0 -1 -1 -1 -2 -2 -2 -2 -2 -2 -2 -2 -2 -2 -2 -2 -2 -2 -2 -2 -2 -2 -2 -2 -2 -2 -2 -2
6 7 8 12 13 12 11 9 8 8 8 6 7 9 6 3 3 2 1 -0 0 -0 -0 -1 -1 -2 -2 -2 -2 -3 -2 -2 -2 -2 -2 -2 -2 -2 -2 -2 -2 -2 -2 -2 -2 -2 -2 -2 -2
6 8 12 13 12 12 11 8 8 8 9 8 7 9 8 4 2 2 1 0 0 0 -0 -1 -1 -1 -2 -2 -2 -2 -2 -2 -2 -2 -2 -2 -2 -2 -2 -2 -2 -2 -2 -2 -2 -2 -1 -2 -2
9 9 12 14 12 11 10 7 7 8 8 7 8 8 8 3 2 2 1 0 -0 0 -0 -1 0 -1 -1 -2 -2 -2 -2 -2 -3 -2 -3 -2 -2 -2 -2 -2 -2 -2 -2 -2 -1 -1 -1 -1 -2
10 10 13 13 12 11 10 8 8 8 8 8 6 9 8 5 2 2 1 1 0 -0 -0 -0 -0 -0 0 -1 -1 -2 -2 -2 -3 -3 -2 -2 -2 -3 -3 -2 -2 -2 -2 -2 -1 -1 -1 -1 -1
10 10 12 12 13 11 9 8 8 8 8 5 6 9 9 4 2 2 2 1 0 -0 -0 -0 -0 -0 -0 0 0 -0 -1 -1 -2 -2 -2 -1 -1 -1 -2 -1 -2 -2 -2 -2 -1 -1 -1 -0 0
9 12 13 12 11 10 8 9 7 6 7 6 5 6 5 2 2 3 3 2 1 1 0 0 -0 -0 0 0 0 1 0 -0 -1 -1 -0 1 1 1 1 0 -1 -2 -2 -1 -1 -1 -1 -1 -0
10 13 12 10 11 11 9 10 8 9 8 8 8 5 3 3 3 4 4 4 3 2 1 0 0 -0 -0 -0 0 0 -0 0 0 1 1 2 2 2 1 2 1 -1 -1 -2 -1 -1 -1 -0 2
10 12 10 9 9 9 9 9 9 9 10 7 7 6 4 4 4 4 4 4 3 3 2 1 0 -0 -0 0 1 1 1 1 1 2 2 2 2 3 2 2 2 1 1 1 -0 0 1 1 2
10 8 8 8 9 9 10 9 9 10 9 7 6 4 4 4 4 4 4 4 3 4 3 2 1 1 -0 -0 0 1 1 1 1 2 2 2 3 3 3 2 2 2 2 2 2 2 2 2 2
9 8 7 7 8 9 8 9 9 9 8 8 5 4 5 4 4 3 3 3 3 3 3 3 2 1 0 1 0 1 1 1 1 2 2 2 2 2 2 2 2 2 2 2 3 3 2 3 2
8 7 7 7 7 7 8 9 9 8 8 8 5 5 5 4 4 4 4 3 3 3 3 3 3 1 1 1 1 1 1 1 1 2 1 2 2 2 2 2 2 3 3 3 3 3 3 2 2
7 10 8 8 8 8 8 9 10 7 8 8 8 5 5 4 4 4 3 3 2 2 2 2 3 2 1 1 1 1 1 1 1 1 2 2 2 2 2 2 3 3 3 2 3 3 3 3 2
10 10 14 9 8 7 8 13 8 6 8 8 8 9 7 5 4 3 3 2 2 2 2 1 2 2 1 1 1 1 1 1 1 1 1 2 2 2 2 3 3 2 2 2 3 3 3 3 3
11 15 14 12 8 9 9 12 8 7 7 8 8 8 8 7 6 3 3 2 2 2 1 1 2 2 2 1 1 1 1 1 1 1 1 2 1 2 2 2 2 3 3 3 3 3 3 3 3
15 15 13 14 11 10 11 11 9 8 8 9 8 8 8 8 7 5 3 2 2 2 2 1 1 2 2 2 1 1 1 1 1 1 1 1 1 2 2 3 3 2 3 3 4 3 3 3 3
12 14 14 13 10 11 12 11 10 8 9 9 8 9 8 7 6 6 5 2 2 2 2 2 2 2 2 2 3 2 2 2 2 1 1 2 2 2 2 2 2 3 3 3 3 3 3 3 3
12 14 14 11 9 11 12 12 9 8 8 8 8 8 8 8 7 6 6 5 2 2 2 2 2 1 2 2 2 2 1 1 1 1 1 2 2 3 3 2 3 3 3 4 3 3 3 3 4
12 14 14 13 11 10 12 13 11 8 8 7 7 7 7 7 6 6 6 7 3 3 2 2 2 2 1 1 1 2 2 3 2 2 1 2 2 2 3 3 3 3 3 3 3 3 3 3 4
15 11 11 12 13 17 11 18 13 11 10 9 8 7 6 6 6 5 5 7 7 3 2 2 2 2 1 1 1 2 2 3 2 1 1 1 1 2 2 3 3 3 3 3 3 3 3 3 3
13 10 11 12 14 14 14 17 14 12 12 11 9 9 8 7 6 6 6 7 8 6 4 3 2 2 1 1 1 2 2 2 1 2 2 1 2 2 2 2 3 3 3 3 3 3 3 3 3
9 11 12 12 14 19 14 16 15 13 11 11 10 10 9 9 9 8 8 8 8 7 7 4 3 3 2 2 1 2 2 2 2 2 2 2 2 2 2 2 2 2 2 2 2 3 3 3 3
10 14 19 20 20 20 14 16 14 11 10 10 10 10 11 10 10 9 9 9 9 9 9 7 5 4 3 3 2 2 2 2 2 2 2 2 2 2 2 2 2 2 2 2 2 2 3 3 3
12 13 18 22 22 20 15 18 14 9 8 8 9 9 10 9 9 9 9 9 9 9 9 9 8 7 6 4 2 2 2 1 2 2 2 2 2 2 1 2 2 2 2 2 2 2 2 2 3
13 16 11 17 20 19 17 14 11 10 11 10 11 10 10 9 9 9 9 9 9 9 9 9 9 8 8 7 6 3 2 1 1 1 1 1 2 2 2 2 2 2 2 2 2 2 2 2 2
11 10 16 16 21 22 18 17 15 13 11 11 11 11 10 9 9 9 9 9 9 9 9 9 9 9 8 8 8 6 5 2 1 1 1 1 1 2 2 2 2 2 2 2 2 2 2 2 2
13 14 13 14 16 20 21 18 13 11 11 11 11 10 10 9 8 8 9 9 11 10 9 9 9 9 9 8 8 8 7 6 4 2 1 1 1 1 2 2 2 2 2 1 2 2 2 2 2
11 13 13 17 18 17 17 16 11 10 11 10 11 10 10 9 8 8 10 10 10 10 10 9 9 8 8 8 9 9 8 7 6 5 3 1 1 1 1 2 2 2 2 2 2 2 2 2 3